Regional Weather Roundup
Issued by NWS

Home | Current Version | Previous Version | Text Only | Print | Product List | Glossary On
Versions: 1 2 3 4 5 6 7 8 9 10 11 12 13 14 15 16 17 18 19 20 21 22 23 24 25 26 27 28 29 30 31 32 33 34 35 36 37 38 39 40 41 42 43 44 45 46 47 48 49 50
000
ASUS44 KBMX 121510
RWRAL

ALABAMA REGIONAL WEATHER ROUNDUP
NATIONAL WEATHER SERVICE BIRMINGHAM AL
900 AM CST TUE DEC 12 2017

NOTE: "FAIR" INDICATES FEW OR NO CLOUDS BELOW 12,000 FEET
WITH NO SIGNIFICANT WEATHER AND/OR OBSTRUCTIONS TO VISIBILITY.

THE REMARK "TC" DENOTES TEMPERATURE IN DEGREES CELSIUS.

ALZ001>011-014-016>018-020-121600-
NORTH ALABAMA

CITY           SKY/WX    TMP DP  RH WIND       PRES   REMARKS
MUSCLE SHOALS  CLOUDY    47  32  56 NW14      30.09R
HUNTSVILLE     CLOUDY    47  35  63 NW12      30.04R
DECATUR        CLOUDY    46  33  60 NW24G33   30.06R
HALEYVILLE     PTSUNNY   44  34  67 NW12G22   30.08R
GADSDEN        CLOUDY    47  34  60 W14       30.03R
$$

ALZ012-013-022-023-030>036-040>044-121600-
WEST CENTRAL ALABAMA

CITY           SKY/WX    TMP DP  RH WIND       PRES   REMARKS
TUSCALOOSA     SUNNY     50  35  56 NW14      30.11R
DEMOPOLIS        N/A     51  32  48 NW13      30.13R
$$

ALZ015-024>026-033>036-041>044-121600-
CENTRAL ALABAMA

CITY           SKY/WX    TMP DP  RH WIND       PRES   REMARKS
BIRMINGHAM     MOSUNNY   46  31  55 NW10      30.08R
MONTGOMERY     SUNNY     50  34  54 NW12      30.07R
SHELBY CO ARPT SUNNY     49  34  56 NW15G22   30.06R
MAXWELL AFB    SUNNY     50  35  56 NW10      30.05R
GREENVILLE     FAIR      51  31  46 NW14G22   30.06R
SELMA          NOT AVBL
PRATTVILLE     FAIR      49  34  55 NW10G20   30.06R
BESSEMER       FAIR      47  32  56 NW13      30.07R
TALLADEGA      FAIR      47  34  60 NW14      30.03R
PELL CITY      PTSUNNY   50  36  57 NW9G15    30.04R
MARION         FAIR      47  36  64 NW14G20   30.10R
SYLACAUGA      FAIR      50  36  58 NW7G17    30.04R
$$

ALZ019-021-028-029-037-038-045>048-121600-
EAST CENTRAL ALABAMA

CITY           SKY/WX    TMP DP  RH WIND       PRES   REMARKS
ANNISTON       SUNNY     47  31  53 W13G18    30.02R
ALEXANDER CITY SUNNY     48  34  58 NW10G18   30.01R
AUBURN         SUNNY     48  35  60 NW14G24   30.00R
$$

ALZ051>064-121600-
SOUTHWEST ALABAMA

CITY           SKY/WX    TMP DP  RH WIND       PRES   REMARKS
MOBILE         MOSUNNY   53  37  54 NW9       30.14R
BROOKLEY FIELD SUNNY     56  37  49 NW16G28   30.13R
EVERGREEN      SUNNY     52  35  52 NW13G21   30.09R
$$

ALZ049-050-065>069-121600-
SOUTHEAST ALABAMA

CITY           SKY/WX    TMP DP  RH WIND       PRES   REMARKS
DOTHAN         SUNNY     52  41  66 NW14      30.03R
OZARK          SUNNY     51  38  61 NW12      30.01R
TROY           SUNNY     51  35  54 NW22G29   30.04R
EUFAULA        FAIR      54  39  57 NW8       29.98R
$$



USA.gov is the U.S. government's official web portal to all federal, state and local government web resources and services.